Location: Fatehalanka
(16.3139°N, 80.8379°E)
Time: 15:55:17
(UTC+00:00)

Resurs 1-4 Rocket - Pass Details

Date: 14 May 2026
Orbit: 797 x 813 km, 98.8° (Epoch: 10 June)

Event Time Altitude Azimuth Distance (km) Brightness Sun altitude
Rises 22:07:38 0° 347° (NNW) 3,298 5.5 -26.6°
Reaches altitude 10° 22:10:43 10° 328° (NNW) 2,365 4.5 -26.0°
Enters shadow 22:11:30 13° 320° (NW) 2,188 4.3 -25.8°
